Starlink 11526

operational
NORAD ID: 63007 Int'l Des: 2025-032 Owner: SPXS Country: US Constellation: starlink
LEOCIRCULAR

关于 Starlink 11526

正在加载描述...

实时位置

正在加载3D地球...

即将过境

高度历史

Altitude vs Time

uPlot chart will show altitude changes over time

两行轨道根数

1 63007U 25032C 25352.97063475 .00316955 00000-0 23523-2 0 9992
2 63007 42.9989 321.4550 0002263 195.2396 164.8404 15.71124808 49521
Epoch: Dec 18, 2025 • Age: 8 hours

当前状态

高度 355.6 km
速度 7.70 km/s
星下点 -11.80°S, 52.35°W
发射日期 Feb 15, 2025
运行时间 0.8 years
类型 internet

技术详情

分类 Payload
质量 960.00 kg
干质量 910.00 kg
总质量 960.00 kg
长度 0.30 m
直径 4.10 m
跨度 29.00 m
形状 Box + pan
制造商 SPXS
平台类型 Starlink V2MD
阶段状态 In Orbit
所有者/国家 SPXS/US

大型星座

Loading constellations...